ZHONGXING-10R

Last updated on Mon Oct 20 2025 00:02:51 GMT+0000 (Coordinated Universal Time)

1 63075U 25036A 25292.07491635 -.00000355 00000+0 00000+0 0 9994 2 63075 0.0757 258.0038 0004851 294.3281 332.9785 1.00273825 2530
UTC large
Height (km)
Speed (km/s)
/
Latitude / Longitude
Inclination (degrees)
Orbital Period (minutes)
Azimuth
Elevation
Range (km)
Doppler Factor

Next 0 passes for location: London (51.5072 / 0.1276)

Sorry there are no passes over London.